Regional Weather Roundup
Issued by NWS Little Rock, AR

Home | Current Version | Previous Version | Text Only | Print | Product List | Glossary On
Versions: 1 2 3 4 5 6 7 8 9 10 11 12 13 14 15 16 17 18 19 20 21 22 23 24 25 26 27 28 29 30 31 32 33 34 35 36 37 38 39 40 41 42 43 44 45 46 47 48 49 50
000
ASUS44 KLZK 080405
RWRLZK

WEATHER ROUNDUP FOR ARKANSAS
NATIONAL WEATHER SERVICE LITTLE ROCK AR
1100 PM CDT TUE JUL 07 2015

NOTE: "FAIR" INDICATES FEW OR NO CLOUDS BELOW 12,000 FEET WITH NO
SIGNIFICANT WEATHER AND/OR OBSTRUCTIONS TO VISIBILITY.

ARZ001-003-010-029-080500-
NORTHWEST ARKANSAS

CITY           SKY/WX    TMP DP  RH WIND       PRES   REMARKS
FAYETTEVILLE   CLOUDY    69  69 100 CALM      30.02S
FORT SMITH     LGT RAIN  74  71  91 CALM      30.01R
HARRISON       CLOUDY    72  72 100 SE5       30.04F
BENTONVILLE    CLOUDY    72  68  88 SE7       30.03S
ROGERS         CLOUDY    72  71  97 SE8       30.03S
SILOAM SPGS    CLOUDY    72  66  83 SE7       30.02S
HIGHFILL       CLOUDY    72  71  97 SE7       30.02S
$$

ARZ004-005-016-080500-
NORTH CENTRAL ARKANSAS

CITY           SKY/WX    TMP DP  RH WIND       PRES   REMARKS
BATESVILLE     CLOUDY    73  70  88 CALM      30.02S
FLIPPIN        CLOUDY    72  70  94 CALM      30.01S
MTN HOME       CLOUDY    72  71  97 S3        30.03R
$$

ARZ040-041-080500-
WEST CENTRAL ARKANSAS

CITY           SKY/WX    TMP DP  RH WIND       PRES   REMARKS
MENA           CLOUDY    77  73  88 SW7G18    30.04R
MOUNT IDA      MOCLDY    75  73  93 CALM      30.01R
$$

ARZ009-017-025-026-028-080500-
NORTHEAST ARKANSAS

CITY           SKY/WX    TMP DP  RH WIND       PRES   REMARKS
JONESBORO      CLOUDY    73  72  96 E3        30.03R
NEWPORT        LGT RAIN  75  74  97 CALM      30.05R
WALNUT RIDGE   CLOUDY    73  70  88 SE8       30.03F
BLYTHEVILLE    CLOUDY    74  74 100 SE3       30.04S
$$

ARZ022-023-033-042-044-080500-
CENTRAL ARKANSAS

CITY           SKY/WX    TMP DP  RH WIND       PRES   REMARKS
LITTLE ROCK    CLOUDY    82  73  74 CALM      30.03R HX  87
N LITTLE ROCK    N/A     76  73  88 N7          N/A
JACKSONVILLE   LGT RAIN  75  73  94 W9        30.04R
SEARCY         CLOUDY    74  73  97 S3        30.04F
HOT SPRINGS    MOCLDY    78  75  90 CALM      30.02R
RUSSELLVILLE   CLOUDY    73  71  93 E3        30.02R
CLINTON        LGT RAIN  72  72 100 CALM      30.05S
$$

ARZ036-080500-
EAST ARKANSAS

CITY           SKY/WX    TMP DP  RH WIND       PRES   REMARKS
WEST MEMPHIS   CLOUDY    79  77  94 S9        30.02F
$$

ARZ050-053-066-070-073-080500-
SOUTHWEST ARKANSAS

CITY           SKY/WX    TMP DP  RH WIND       PRES   REMARKS
ARKADELPHIA    FAIR      80  78  94 CALM      30.02R HX  86
CAMDEN         MOCLDY    81  73  78 MISG      30.02R HX  85
TEXARKANA      PTCLDY    81  73  76 S12       30.01R HX  86
EL DORADO      MOCLDY    80  72  76 S8        30.04R
DE QUEEN       MOCLDY    74  71  91 N5        29.99R
$$

ARZ056-057-069-080500-
SOUTHEAST ARKANSAS

CITY           SKY/WX    TMP DP  RH WIND       PRES   REMARKS
PINE BLUFF     MOCLDY    80  75  84 S6        30.03R HX  85
STUTTGART      MOCLDY    82  73  74 S6        30.01S HX  88
MONTICELLO     PTCLDY    81  75  82 S8        30.04S HX  87

$$




USA.gov is the U.S. government's official web portal to all federal, state and local government web resources and services.